| time (UTC) | temp C | wind direction | speed KPH | gust KPH | rain 1hr cm | rain 24hr cm | rain mn cm | humidity % | barometer mb |
| 20260510153405 | 18 | 46 | 1.6 | 12.9 | 0.00 | 0.00 | 0.00 | 65 | 1018.8 |
| 20260510152901 | 18 | 340 | 1.6 | 3.2 | 0.00 | 0.00 | 0.00 | 66 | 1018.5 |
| 20260510152359 | 18 | 353 | 3.2 | 11.3 | 0.00 | 0.00 | 0.00 | 67 | 1018.9 |
| 20260510151855 | 18 | 338 | 4.8 | 9.7 | 0.00 | 0.00 | 0.00 | 66 | 1018.7 |
| 20260510151353 | 18 | 337 | 6.4 | 9.7 | 0.00 | 0.00 | 0.00 | 65 | 1018.6 |
| 20260510150849 | 18 | 16 | 4.8 | 8.0 | 0.00 | 0.00 | 0.00 | 67 | 1018.8 |
| 20260510150345 | 18 | 62 | 1.6 | 9.7 | 0.00 | 0.00 | 0.00 | 68 | 1018.7 |
| 20260510145841 | 18 | 321 | 6.4 | 9.7 | 0.00 | 0.00 | 0.00 | 68 | 1019.0 |
| 20260510145337 | 18 | 163 | 0.0 | 4.8 | 0.00 | 0.00 | 0.00 | 70 | 1019.0 |
| 20260510144834 | 18 | 275 | 3.2 | 4.8 | 0.00 | 0.00 | 0.00 | 71 | 1019.0 |
| 20260510144331 | 18 | 337 | 4.8 | 4.8 | 0.00 | 0.00 | 0.00 | 71 | 1018.9 |
| 20260510143831 | 18 | 32 | 1.6 | 3.2 | 0.00 | 0.00 | 0.00 | 71 | 1018.9 |
| 20260510143327 | 18 | 354 | 6.4 | 9.7 | 0.00 | 0.00 | 0.00 | 70 | 1018.9 |
| 20260510142824 | 18 | 43 | 1.6 | 8.0 | 0.00 | 0.00 | 0.00 | 71 | 1019.1 |
| 20260510142321 | 18 | 17 | 3.2 | 8.0 | 0.00 | 0.00 | 0.00 | 70 | 1018.8 |
| 20260510141818 | 18 | 47 | 1.6 | 4.8 | 0.00 | 0.00 | 0.00 | 71 | 1018.7 |
| 20260510141316 | 18 | 193 | 4.8 | 9.7 | 0.00 | 0.00 | 0.00 | 71 | 1018.5 |
| 20260510140813 | 18 | 16 | 1.6 | 3.2 | 0.00 | 0.00 | 0.00 | 72 | 1018.8 |
| 20260510140308 | 17 | 312 | 4.8 | 9.7 | 0.00 | 0.00 | 0.00 | 71 | 1018.5 |
| 20260510135801 | 17 | 1 | 3.2 | 8.0 | 0.00 | 0.00 | 0.00 | 72 | 1018.4 |
| 20260510135257 | 17 | 347 | 8.0 | 9.7 | 0.00 | 0.00 | 0.00 | 71 | 1018.4 |
| 20260510134755 | 17 | 8 | 3.2 | 9.7 | 0.00 | 0.00 | 0.00 | 72 | 1018.2 |
| 20260510134252 | 17 | 21 | 3.2 | 4.8 | 0.00 | 0.00 | 0.00 | 72 | 1018.2 |
| 20260510133748 | 17 | 69 | 1.6 | 9.7 | 0.00 | 0.00 | 0.00 | 72 | 1018.3 |
| 20260510133244 | 17 | 335 | 8.0 | 11.3 | 0.00 | 0.00 | 0.00 | 70 | 1018.1 |
| 20260510132740 | 17 | 52 | 1.6 | 8.0 | 0.00 | 0.00 | 0.00 | 72 | 1018.1 |
| 20260510132238 | 17 | 337 | 8.0 | 11.3 | 0.00 | 0.00 | 0.00 | 71 | 1018.0 |
| 20260510131734 | 17 | 59 | 3.2 | 9.7 | 0.00 | 0.00 | 0.00 | 72 | 1017.8 |
| 20260510131233 | 17 | 11 | 6.4 | 8.0 | 0.00 | 0.00 | 0.00 | 73 | 1017.7 |
| 20260510130728 | 17 | 352 | 6.4 | 12.9 | 0.00 | 0.00 | 0.00 | 74 | 1017.8 |
| 20260510130226 | 17 | 347 | 8.0 | 11.3 | 0.00 | 0.00 | 0.00 | 75 | 1017.7 |
| 20260510125722 | 16 | 30 | 4.8 | 9.7 | 0.00 | 0.00 | 0.00 | 76 | 1017.6 |
| 20260510125218 | 16 | 153 | 1.6 | 8.0 | 0.00 | 0.00 | 0.00 | 76 | 1017.4 |
| 20260510124715 | 16 | 85 | 1.6 | 8.0 | 0.00 | 0.00 | 0.00 | 77 | 1017.3 |
| 20260510124213 | 16 | 139 | 0.0 | 1.6 | 0.00 | 0.00 | 0.00 | 78 | 1017.1 |
| 20260510123707 | 16 | 331 | 1.6 | 1.6 | 0.00 | 0.00 | 0.00 | 78 | 1017.0 |
| 20260510123204 | 16 | 347 | 4.8 | 8.0 | 0.00 | 0.00 | 0.00 | 79 | 1016.8 |
| 20260510122700 | 15 | 53 | 0.0 | 3.2 | 0.00 | 0.00 | 0.00 | 80 | 1016.9 |
| 20260510122157 | 15 | 14 | 1.6 | 3.2 | 0.00 | 0.00 | 0.00 | 80 | 1016.9 |
| 20260510121653 | 15 | 50 | 3.2 | 3.2 | 0.00 | 0.00 | 0.00 | 81 | 1016.8 |
| 20260510121150 | 15 | 116 | 0.0 | 3.2 | 0.00 | 0.00 | 0.00 | 81 | 1016.5 |
| 20260510120648 | 15 | 27 | 0.0 | 4.8 | 0.00 | 0.00 | 0.00 | 82 | 1016.3 |
| 20260510120143 | 15 | 350 | 3.2 | 4.8 | 0.00 | 0.00 | 0.00 | 83 | 1016.5 |
| 20260510115640 | 15 | 106 | 0.0 | 3.2 | 0.00 | 0.00 | 0.00 | 83 | 1016.6 |
| 20260510115138 | 15 | 12 | 4.8 | 4.8 | 0.00 | 0.00 | 0.00 | 83 | 1016.2 |
| 20260510114633 | 15 | 91 | 0.0 | 3.2 | 0.00 | 0.00 | 0.00 | 83 | 1016.4 |
| 20260510114130 | 15 | 66 | 0.0 | 1.6 | 0.00 | 0.00 | 0.00 | 83 | 1016.4 |
| 20260510113625 | 15 | 50 | 0.0 | 0.0 | 0.00 | 0.00 | 0.00 | 82 | 1016.0 |
| 20260510113123 | 15 | 10 | 1.6 | 4.8 | 0.00 | 0.00 | 0.00 | 82 | 1015.8 |
| 20260510112619 | 15 | 98 | 0.0 | 0.0 | 0.00 | 0.00 | 0.00 | 82 | 1015.8 |
| 20260510112115 | 15 | 53 | 0.0 | 1.6 | 0.00 | 0.00 | 0.00 | 82 | 1015.8 |
| 20260510111612 | 15 | 155 | 0.0 | 0.0 | 0.00 | 0.00 | 0.00 | 81 | 1015.8 |
| 20260510111102 | 15 | 167 | 0.0 | 0.0 | 0.00 | 0.00 | 0.00 | 81 | 1015.6 |
| 20260510110558 | 15 | 128 | 0.0 | 0.0 | 0.00 | 0.00 | 0.00 | 81 | 1015.4 |
| 20260510110054 | 15 | 122 | 0.0 | 1.6 | 0.00 | 0.00 | 0.00 | 81 | 1015.4 |
| 20260510105550 | 15 | 146 | 0.0 | 1.6 | 0.00 | 0.00 | 0.00 | 82 | 1015.4 |
| 20260510105045 | 15 | 71 | 0.0 | 1.6 | 0.00 | 0.00 | 0.00 | 83 | 1015.3 |
| 20260510104542 | 14 | 151 | 0.0 | 1.6 | 0.00 | 0.00 | 0.00 | 85 | 1015.4 |
| 20260510104038 | 14 | 155 | 0.0 | 0.0 | 0.00 | 0.00 | 0.00 | 87 | 1015.5 |
| 20260510103536 | 13 | 86 | 0.0 | 1.6 | 0.00 | 0.00 | 0.00 | 88 | 1015.4 |
| 20260510103032 | 13 | 147 | 0.0 | 0.0 | 0.00 | 0.00 | 0.00 | 90 | 1015.2 |
| 20260510102527 | 13 | 148 | 0.0 | 0.0 | 0.00 | 0.00 | 0.00 | 91 | 1015.4 |
| 20260510102024 | 13 | 163 | 0.0 | 0.0 | 0.00 | 0.00 | 0.00 | 91 | 1015.5 |
| 20260510101521 | 13 | 164 | 0.0 | 0.0 | 0.00 | 0.00 | 0.00 | 91 | 1015.2 |
| 20260510101020 | 13 | 165 | 0.0 | 0.0 | 0.00 | 0.00 | 0.00 | 90 | 1015.2 |
| 20260510100516 | 13 | 164 | 0.0 | 0.0 | 0.00 | 0.00 | 0.00 | 90 | 1014.9 |
| 20260510100013 | 13 | 164 | 0.0 | 0.0 | 0.00 | 0.00 | 0.00 | 90 | 1014.8 |
| 20260510095508 | 13 | 172 | 0.0 | 0.0 | 0.00 | 0.00 | 0.00 | 90 | 1015.1 |
| 20260510095008 | 13 | 173 | 0.0 | 0.0 | 0.00 | 0.00 | 0.00 | 90 | 1014.7 |
| 20260510094502 | 13 | 173 | 0.0 | 0.0 | 0.00 | 0.00 | 0.00 | 89 | 1014.9 |
| 20260510093958 | 13 | 171 | 0.0 | 0.0 | 0.00 | 0.00 | 0.00 | 89 | 1015.2 |
| 20260510093454 | 13 | 171 | 0.0 | 0.0 | 0.00 | 0.00 | 0.00 | 89 | 1014.8 |
| 20260510092951 | 13 | 171 | 0.0 | 0.0 | 0.00 | 0.00 | 0.00 | 88 | 1014.7 |
| 20260510092448 | 13 | 171 | 0.0 | 0.0 | 0.00 | 0.00 | 0.00 | 88 | 1014.7 |
| 20260510091942 | 13 | 172 | 0.0 | 0.0 | 0.00 | 0.00 | 0.00 | 87 | 1014.6 |
| 20260510091440 | 13 | 172 | 0.0 | 0.0 | 0.00 | 0.00 | 0.00 | 87 | 1014.3 |
| 20260510090936 | 14 | 172 | 0.0 | 0.0 | 0.00 | 0.00 | 0.00 | 86 | 1014.6 |
| 20260510090433 | 14 | 172 | 0.0 | 0.0 | 0.00 | 0.00 | 0.00 | 86 | 1014.3 |
| 20260510085928 | 15 | 171 | 0.0 | 0.0 | 0.00 | 0.00 | 0.00 | 85 | 1014.2 |
| 20260510085424 | 15 | 151 | 0.0 | 0.0 | 0.00 | 0.00 | 0.00 | 82 | 1014.4 |
| 20260510084920 | 15 | 125 | 0.0 | 1.6 | 0.00 | 0.00 | 0.00 | 83 | 1014.1 |
| 20260510084417 | 14 | 161 | 0.0 | 0.0 | 0.00 | 0.00 | 0.00 | 85 | 1014.2 |
| 20260510083914 | 15 | 164 | 0.0 | 0.0 | 0.00 | 0.00 | 0.00 | 84 | 1014.0 |
| 20260510083410 | 15 | 153 | 0.0 | 0.0 | 0.00 | 0.00 | 0.00 | 83 | 1014.2 |
| 20260510082905 | 15 | 177 | 0.0 | 0.0 | 0.00 | 0.00 | 0.00 | 83 | 1013.9 |
| 20260510082404 | 15 | 148 | 0.0 | 0.0 | 0.00 | 0.00 | 0.00 | 83 | 1013.9 |
| 20260510081901 | 15 | 148 | 0.0 | 0.0 | 0.00 | 0.00 | 0.00 | 83 | 1013.8 |
| 20260510081357 | 15 | 174 | 0.0 | 0.0 | 0.00 | 0.00 | 0.00 | 83 | 1013.9 |
| 20260510080854 | 15 | 179 | 0.0 | 0.0 | 0.00 | 0.00 | 0.00 | 82 | 1013.9 |
| 20260510080349 | 15 | 114 | 0.0 | 0.0 | 0.00 | 0.00 | 0.00 | 83 | 1014.0 |
| 20260510075846 | 15 | 181 | 0.0 | 0.0 | 0.00 | 0.00 | 0.00 | 83 | 1014.1 |
| 20260510075344 | 15 | 162 | 0.0 | 0.0 | 0.00 | 0.00 | 0.00 | 82 | 1014.3 |
| 20260510074840 | 15 | 172 | 0.0 | 0.0 | 0.00 | 0.00 | 0.00 | 82 | 1014.4 |
| 20260510074337 | 15 | 173 | 0.0 | 0.0 | 0.00 | 0.00 | 0.00 | 82 | 1014.1 |
| 20260510073834 | 15 | 163 | 0.0 | 0.0 | 0.00 | 0.00 | 0.00 | 80 | 1014.1 |
| 20260510073329 | 15 | 152 | 0.0 | 0.0 | 0.00 | 0.00 | 0.00 | 80 | 1014.3 |
| 20260510072825 | 15 | 137 | 0.0 | 0.0 | 0.00 | 0.00 | 0.00 | 80 | 1014.1 |
| 20260510072322 | 15 | 159 | 0.0 | 0.0 | 0.00 | 0.00 | 0.00 | 81 | 1014.0 |
| 20260510071818 | 15 | 176 | 0.0 | 0.0 | 0.00 | 0.00 | 0.00 | 81 | 1013.8 |
| 20260510071314 | 15 | 176 | 0.0 | 0.0 | 0.00 | 0.00 | 0.00 | 79 | 1013.8 |
| 20260510070814 | 15 | 176 | 0.0 | 0.0 | 0.00 | 0.00 | 0.00 | 79 | 1014.1 |
| 20260510070305 | 15 | 175 | 0.0 | 0.0 | 0.00 | 0.00 | 0.00 | 78 | 1014.1 |
| 20260510065804 | 15 | 167 | 0.0 | 0.0 | 0.00 | 0.00 | 0.00 | 78 | 1013.9 |
| 20260510065301 | 15 | 168 | 0.0 | 0.0 | 0.00 | 0.00 | 0.00 | 77 | 1013.8 |
| 20260510064758 | 16 | 168 | 0.0 | 0.0 | 0.00 | 0.00 | 0.00 | 76 | 1013.8 |
| 20260510064256 | 16 | 167 | 0.0 | 0.0 | 0.00 | 0.00 | 0.00 | 75 | 1013.9 |
| 20260510063751 | 16 | 165 | 0.0 | 0.0 | 0.00 | 0.00 | 0.00 | 74 | 1013.9 |
| 20260510063247 | 16 | 165 | 0.0 | 0.0 | 0.00 | 0.00 | 0.00 | 72 | 1014.0 |
| 20260510062744 | 17 | 165 | 0.0 | 0.0 | 0.00 | 0.00 | 0.00 | 71 | 1014.1 |
| 20260510062240 | 17 | 165 | 0.0 | 0.0 | 0.00 | 0.00 | 0.00 | 69 | 1013.9 |
| 20260510061736 | 17 | 165 | 0.0 | 0.0 | 0.00 | 0.00 | 0.00 | 69 | 1014.0 |
| 20260510061233 | 17 | 71 | 1.6 | 3.2 | 0.00 | 0.00 | 0.00 | 68 | 1013.8 |
| 20260510060729 | 17 | 55 | 0.0 | 1.6 | 0.00 | 0.00 | 0.00 | 71 | 1014.0 |
| 20260510060226 | 17 | 69 | 0.0 | 1.6 | 0.00 | 0.00 | 0.00 | 72 | 1014.0 |
| 20260510055723 | 17 | 173 | 0.0 | 0.0 | 0.00 | 0.00 | 0.00 | 72 | 1013.7 |
| 20260510055221 | 17 | 173 | 0.0 | 0.0 | 0.00 | 0.00 | 0.00 | 71 | 1013.7 |
| 20260510054721 | 17 | 173 | 0.0 | 0.0 | 0.00 | 0.00 | 0.00 | 70 | 1013.8 |
| 20260510054218 | 17 | 153 | 0.0 | 0.0 | 0.00 | 0.00 | 0.00 | 69 | 1013.8 |
| 20260510053717 | 17 | 181 | 0.0 | 0.0 | 0.00 | 0.00 | 0.00 | 69 | 1013.7 |
| 20260510053214 | 18 | 178 | 0.0 | 0.0 | 0.00 | 0.00 | 0.00 | 67 | 1013.6 |
| 20260510052709 | 18 | 189 | 0.0 | 0.0 | 0.00 | 0.00 | 0.00 | 68 | 1013.5 |
| 20260510052206 | 18 | 180 | 0.0 | 1.6 | 0.00 | 0.00 | 0.00 | 68 | 1013.7 |
| 20260510051701 | 17 | 184 | 0.0 | 1.6 | 0.00 | 0.00 | 0.00 | 69 | 1013.6 |
| 20260510051158 | 17 | 181 | 0.0 | 0.0 | 0.00 | 0.00 | 0.00 | 71 | 1013.7 |
| 20260510050656 | 17 | 165 | 0.0 | 0.0 | 0.00 | 0.00 | 0.00 | 72 | 1013.6 |
| 20260510050153 | 16 | 181 | 0.0 | 0.0 | 0.00 | 0.00 | 0.00 | 74 | 1013.7 |
| 20260510045649 | 16 | 180 | 0.0 | 0.0 | 0.00 | 0.03 | 0.03 | 79 | 1013.6 |
| 20260510045146 | 16 | 179 | 0.0 | 0.0 | 0.00 | 0.03 | 0.03 | 78 | 1013.3 |
| 20260510044642 | 16 | 179 | 0.0 | 0.0 | 0.00 | 0.03 | 0.03 | 75 | 1013.3 |
| 20260510044140 | 16 | 179 | 0.0 | 0.0 | 0.00 | 0.03 | 0.03 | 75 | 1013.4 |
| 20260510043635 | 16 | 179 | 0.0 | 0.0 | 0.00 | 0.03 | 0.03 | 75 | 1013.3 |
| 20260510043132 | 16 | 179 | 0.0 | 0.0 | 0.00 | 0.03 | 0.03 | 75 | 1013.6 |
| 20260510042630 | 16 | 182 | 0.0 | 0.0 | 0.00 | 0.03 | 0.03 | 74 | 1013.2 |
| 20260510042125 | 16 | 188 | 0.0 | 0.0 | 0.00 | 0.03 | 0.03 | 74 | 1013.5 |
| 20260510041623 | 16 | 172 | 0.0 | 0.0 | 0.00 | 0.03 | 0.03 | 78 | 1013.6 |
| 20260510041120 | 16 | 171 | 0.0 | 0.0 | 0.00 | 0.03 | 0.03 | 78 | 1013.2 |
| 20260510040617 | 16 | 171 | 0.0 | 0.0 | 0.00 | 0.03 | 0.03 | 78 | 1013.4 |
| 20260510040113 | 16 | 154 | 0.0 | 0.0 | 0.00 | 0.03 | 0.03 | 77 | 1013.1 |
| 20260510035609 | 16 | 170 | 0.0 | 0.0 | 0.00 | 0.03 | 0.03 | 77 | 1013.1 |
| 20260510035104 | 16 | 162 | 0.0 | 0.0 | 0.00 | 0.03 | 0.03 | 76 | 1013.0 |
| 20260510034602 | 16 | 162 | 0.0 | 0.0 | 0.00 | 0.03 | 0.03 | 75 | 1012.9 |
| 20260510034058 | 16 | 162 | 0.0 | 0.0 | 0.00 | 0.03 | 0.03 | 75 | 1013.0 |
| 20260510033554 | 16 | 159 | 0.0 | 0.0 | 0.00 | 0.03 | 0.03 | 75 | 1013.2 |
| 20260510033052 | 16 | 181 | 0.0 | 0.0 | 0.00 | 0.03 | 0.03 | 76 | 1013.1 |
| 20260510032548 | 16 | 156 | 0.0 | 0.0 | 0.00 | 0.03 | 0.03 | 76 | 1012.8 |
| 20260510032044 | 16 | 155 | 0.0 | 0.0 | 0.00 | 0.03 | 0.03 | 75 | 1012.7 |
| 20260510031538 | 16 | 155 | 0.0 | 0.0 | 0.00 | 0.03 | 0.03 | 75 | 1012.7 |
| 20260510031035 | 16 | 155 | 0.0 | 0.0 | 0.00 | 0.03 | 0.03 | 74 | 1012.8 |
| 20260510030530 | 17 | 155 | 0.0 | 0.0 | 0.00 | 0.03 | 0.03 | 72 | 1012.6 |
| 20260510030029 | 17 | 156 | 0.0 | 0.0 | 0.00 | 0.03 | 0.03 | 72 | 1012.8 |
| 20260510025525 | 17 | 156 | 0.0 | 0.0 | 0.00 | 0.03 | 0.03 | 72 | 1012.6 |
| 20260510025023 | 17 | 155 | 0.0 | 0.0 | 0.00 | 0.03 | 0.03 | 72 | 1012.7 |
| 20260510024519 | 17 | 155 | 0.0 | 0.0 | 0.00 | 0.03 | 0.03 | 72 | 1012.5 |
| 20260510024015 | 17 | 154 | 0.0 | 0.0 | 0.00 | 0.03 | 0.03 | 70 | 1012.5 |
| 20260510023511 | 18 | 154 | 0.0 | 0.0 | 0.00 | 0.03 | 0.03 | 69 | 1012.2 |
| 20260510023010 | 17 | 154 | 0.0 | 0.0 | 0.00 | 0.03 | 0.03 | 69 | 1012.1 |
| 20260510022508 | 17 | 172 | 0.0 | 0.0 | 0.00 | 0.03 | 0.03 | 68 | 1012.0 |
| 20260510022008 | 18 | 173 | 0.0 | 0.0 | 0.00 | 0.03 | 0.03 | 68 | 1011.9 |
| 20260510021505 | 18 | 172 | 0.0 | 0.0 | 0.00 | 0.03 | 0.03 | 67 | 1011.7 |
| 20260510021003 | 18 | 172 | 0.0 | 0.0 | 0.00 | 0.03 | 0.03 | 67 | 1011.9 |
| 20260510020456 | 18 | 172 | 0.0 | 0.0 | 0.00 | 0.03 | 0.03 | 66 | 1011.5 |
| 20260510015952 | 19 | 173 | 0.0 | 0.0 | 0.00 | 0.03 | 0.03 | 65 | 1011.4 |
| 20260510015448 | 19 | 172 | 0.0 | 0.0 | 0.00 | 0.03 | 0.03 | 63 | 1011.3 |
| 20260510014943 | 19 | 172 | 0.0 | 0.0 | 0.00 | 0.03 | 0.03 | 64 | 1011.3 |
| 20260510014441 | 20 | 172 | 0.0 | 0.0 | 0.00 | 0.03 | 0.03 | 62 | 1011.2 |
| 20260510013938 | 20 | 172 | 0.0 | 0.0 | 0.00 | 0.03 | 0.03 | 61 | 1011.0 |
| 20260510013432 | 20 | 172 | 0.0 | 0.0 | 0.00 | 0.03 | 0.03 | 58 | 1010.9 |
| 20260510012928 | 20 | 172 | 0.0 | 0.0 | 0.00 | 0.03 | 0.03 | 58 | 1010.9 |
| 20260510012423 | 21 | 172 | 0.0 | 0.0 | 0.00 | 0.03 | 0.03 | 57 | 1010.8 |
| 20260510011918 | 21 | 173 | 0.0 | 0.0 | 0.00 | 0.03 | 0.03 | 54 | 1011.0 |
| 20260510011413 | 22 | 173 | 0.0 | 0.0 | 0.00 | 0.03 | 0.03 | 52 | 1010.7 |
| 20260510010909 | 22 | 173 | 0.0 | 0.0 | 0.00 | 0.03 | 0.03 | 49 | 1010.9 |
| 20260510010407 | 22 | 173 | 0.0 | 0.0 | 0.00 | 0.03 | 0.03 | 48 | 1010.6 |
| 20260510005903 | 23 | 173 | 0.0 | 0.0 | 0.00 | 0.03 | 0.03 | 46 | 1010.7 |
| 20260510005400 | 23 | 185 | 0.0 | 0.0 | 0.00 | 0.03 | 0.03 | 45 | 1010.6 |
| 20260510004857 | 23 | 175 | 0.0 | 0.0 | 0.00 | 0.03 | 0.03 | 44 | 1010.8 |
| 20260510004355 | 24 | 179 | 0.0 | 0.0 | 0.00 | 0.03 | 0.03 | 43 | 1010.4 |
| 20260510003852 | 24 | 178 | 0.0 | 0.0 | 0.00 | 0.03 | 0.03 | 43 | 1010.4 |
| 20260510003349 | 25 | 180 | 0.0 | 0.0 | 0.00 | 0.03 | 0.03 | 42 | 1010.5 |
| 20260510002848 | 25 | 176 | 0.0 | 0.0 | 0.00 | 0.03 | 0.03 | 41 | 1010.3 |
| 20260510002345 | 25 | 176 | 0.0 | 0.0 | 0.00 | 0.03 | 0.03 | 41 | 1010.5 |
| 20260510001842 | 25 | 181 | 0.0 | 0.0 | 0.00 | 0.03 | 0.03 | 39 | 1010.3 |
| 20260510001340 | 25 | 165 | 0.0 | 0.0 | 0.00 | 0.03 | 0.03 | 39 | 1010.2 |
| 20260510000836 | 25 | 163 | 0.0 | 0.0 | 0.00 | 0.03 | 0.03 | 36 | 1010.4 |
| 20260510000333 | 25 | 179 | 0.0 | 1.6 | 0.00 | 0.03 | 0.03 | 40 | 1010.5 |
| 20260509235830 | 25 | 163 | 0.0 | 1.6 | 0.00 | 0.03 | 0.03 | 39 | 1010.5 |
| 20260509235326 | 25 | 156 | 3.2 | 4.8 | 0.00 | 0.03 | 0.03 | 40 | 1010.3 |
| 20260509234822 | 26 | 165 | 0.0 | 3.2 | 0.00 | 0.03 | 0.03 | 37 | 1010.4 |
| 20260509234319 | 26 | 176 | 0.0 | 1.6 | 0.00 | 0.03 | 0.03 | 37 | 1010.5 |
| 20260509233818 | 26 | 182 | 0.0 | 1.6 | 0.00 | 0.03 | 0.03 | 37 | 1010.5 |
| 20260509233315 | 27 | 187 | 0.0 | 4.8 | 0.00 | 0.03 | 0.03 | 36 | 1010.7 |
| 20260509232810 | 26 | 219 | 0.0 | 3.2 | 0.00 | 0.03 | 0.03 | 34 | 1010.5 |
| 20260509232308 | 26 | 222 | 0.0 | 1.6 | 0.00 | 0.03 | 0.03 | 36 | 1010.5 |
| 20260509231804 | 27 | 191 | 0.0 | 4.8 | 0.00 | 0.03 | 0.03 | 36 | 1010.5 |
| 20260509231301 | 27 | 177 | 1.6 | 4.8 | 0.00 | 0.03 | 0.03 | 34 | 1010.5 |
| 20260509230759 | 27 | 153 | 1.6 | 4.8 | 0.00 | 0.03 | 0.03 | 33 | 1010.4 |
| 20260509230256 | 27 | 172 | 0.0 | 3.2 | 0.00 | 0.03 | 0.03 | 35 | 1010.4 |
| 20260509225750 | 27 | 235 | 1.6 | 4.8 | 0.00 | 0.03 | 0.03 | 34 | 1010.5 |
| 20260509225247 | 27 | 176 | 0.0 | 3.2 | 0.00 | 0.03 | 0.03 | 31 | 1010.4 |
| 20260509224743 | 27 | 188 | 0.0 | 1.6 | 0.00 | 0.03 | 0.03 | 31 | 1010.4 |
| 20260509224241 | 27 | 183 | 1.6 | 4.8 | 0.00 | 0.03 | 0.03 | 34 | 1010.4 |
| 20260509223737 | 28 | 187 | 0.0 | 0.0 | 0.00 | 0.03 | 0.03 | 30 | 1010.5 |
| 20260509223234 | 28 | 187 | 0.0 | 1.6 | 0.00 | 0.03 | 0.03 | 33 | 1010.3 |
| 20260509222731 | 29 | 190 | 0.0 | 0.0 | 0.00 | 0.03 | 0.03 | 30 | 1010.5 |
| 20260509222226 | 28 | 191 | 0.0 | 0.0 | 0.00 | 0.03 | 0.03 | 33 | 1010.4 |
| 20260509221722 | 28 | 201 | 1.6 | 1.6 | 0.00 | 0.03 | 0.03 | 35 | 1010.7 |
| 20260509221219 | 28 | 179 | 0.0 | 1.6 | 0.00 | 0.03 | 0.03 | 34 | 1010.3 |
| 20260509220714 | 28 | 169 | 0.0 | 1.6 | 0.00 | 0.03 | 0.03 | 31 | 1010.6 |
| 20260509220211 | 28 | 173 | 0.0 | 3.2 | 0.00 | 0.03 | 0.03 | 34 | 1010.6 |
| 20260509215707 | 28 | 176 | 0.0 | 8.0 | 0.00 | 0.03 | 0.03 | 35 | 1010.6 |
| 20260509215203 | 28 | 167 | 3.2 | 11.3 | 0.00 | 0.03 | 0.03 | 37 | 1010.7 |
| 20260509214701 | 28 | 244 | 0.0 | 0.0 | 0.00 | 0.03 | 0.03 | 32 | 1010.8 |
| 20260509214157 | 28 | 108 | 3.2 | 9.7 | 0.00 | 0.03 | 0.03 | 37 | 1010.6 |
| 20260509213655 | 28 | 171 | 0.0 | 4.8 | 0.00 | 0.03 | 0.03 | 36 | 1010.7 |
| 20260509213150 | 28 | 120 | 4.8 | 9.7 | 0.00 | 0.03 | 0.03 | 35 | 1010.4 |
| 20260509212648 | 28 | 177 | 0.0 | 0.0 | 0.00 | 0.03 | 0.03 | 33 | 1010.4 |
| 20260509212145 | 28 | 229 | 1.6 | 3.2 | 0.00 | 0.03 | 0.03 | 35 | 1010.7 |
| 20260509211640 | 28 | 234 | 0.0 | 1.6 | 0.00 | 0.03 | 0.03 | 35 | 1010.4 |
| 20260509211137 | 28 | 207 | 0.0 | 8.0 | 0.00 | 0.03 | 0.03 | 36 | 1010.5 |
| 20260509210634 | 28 | 237 | 0.0 | 1.6 | 0.00 | 0.03 | 0.03 | 35 | 1010.7 |
| 20260509210131 | 28 | 191 | 0.0 | 4.8 | 0.00 | 0.03 | 0.03 | 38 | 1010.9 |
| 20260509205626 | 28 | 186 | 1.6 | 4.8 | 0.00 | 0.03 | 0.03 | 36 | 1010.8 |
| 20260509205120 | 27 | 257 | 0.0 | 4.8 | 0.00 | 0.03 | 0.03 | 38 | 1010.7 |
| 20260509204617 | 28 | 192 | 0.0 | 3.2 | 0.00 | 0.03 | 0.03 | 40 | 1011.1 |
| 20260509204114 | 27 | 175 | 1.6 | 9.7 | 0.00 | 0.03 | 0.03 | 35 | 1011.0 |
| 20260509203610 | 27 | 170 | 6.4 | 11.3 | 0.00 | 0.03 | 0.03 | 36 | 1010.8 |
| 20260509203109 | 27 | 196 | 6.4 | 8.0 | 0.00 | 0.03 | 0.03 | 36 | 1010.8 |
| 20260509202608 | 27 | 175 | 4.8 | 14.5 | 0.00 | 0.03 | 0.03 | 38 | 1011.0 |
| 20260509202105 | 28 | 192 | 1.6 | 3.2 | 0.00 | 0.03 | 0.03 | 33 | 1011.2 |
| 20260509201604 | 27 | 202 | 0.0 | 1.6 | 0.00 | 0.03 | 0.03 | 36 | 1010.9 |
| 20260509201103 | 28 | 225 | 1.6 | 8.0 | 0.00 | 0.03 | 0.03 | 40 | 1011.1 |
| 20260509200602 | 28 | 154 | 1.6 | 9.7 | 0.00 | 0.03 | 0.03 | 33 | 1011.2 |
| 20260509200059 | 28 | 217 | 0.0 | 4.8 | 0.00 | 0.03 | 0.03 | 33 | 1011.2 |
| 20260509195554 | 27 | 248 | 0.0 | 3.2 | 0.00 | 0.03 | 0.03 | 39 | 1011.3 |
| 20260509195049 | 28 | 192 | 1.6 | 3.2 | 0.00 | 0.03 | 0.03 | 37 | 1011.2 |
| 20260509194549 | 28 | 173 | 1.6 | 3.2 | 0.00 | 0.03 | 0.03 | 39 | 1011.3 |
| 20260509194047 | 27 | 173 | 6.4 | 8.0 | 0.00 | 0.03 | 0.03 | 42 | 1011.5 |
| 20260509193542 | 28 | 298 | 1.6 | 4.8 | 0.00 | 0.03 | 0.03 | 35 | 1011.4 |
| 20260509193039 | 28 | 171 | 4.8 | 9.7 | 0.00 | 0.03 | 0.03 | 38 | 1011.7 |
| 20260509192535 | 27 | 317 | 0.0 | 3.2 | 0.00 | 0.03 | 0.03 | 37 | 1011.6 |
| 20260509192030 | 27 | 190 | 1.6 | 9.7 | 0.00 | 0.03 | 0.03 | 38 | 1011.5 |
| 20260509191525 | 27 | 156 | 3.2 | 3.2 | 0.00 | 0.03 | 0.03 | 40 | 1011.4 |
| 20260509191016 | 27 | 3 | 1.6 | 3.2 | 0.00 | 0.03 | 0.03 | 35 | 1011.5 |
| 20260509190513 | 27 | 252 | 1.6 | 3.2 | 0.00 | 0.03 | 0.03 | 34 | 1011.6 |
| 20260509190011 | 28 | 281 | 1.6 | 3.2 | 0.00 | 0.03 | 0.03 | 35 | 1011.5 |
| 20260509185508 | 27 | 190 | 0.0 | 3.2 | 0.00 | 0.03 | 0.03 | 37 | 1011.5 |
| 20260509185004 | 27 | 186 | 1.6 | 4.8 | 0.00 | 0.03 | 0.03 | 34 | 1011.6 |
| 20260509184503 | 28 | 169 | 1.6 | 4.8 | 0.00 | 0.03 | 0.03 | 33 | 1011.6 |
| 20260509183959 | 28 | 200 | 0.0 | 1.6 | 0.00 | 0.03 | 0.03 | 36 | 1011.7 |
| 20260509183459 | 27 | 111 | 0.0 | 8.0 | 0.00 | 0.03 | 0.03 | 37 | 1011.5 |
| 20260509182955 | 27 | 146 | 0.0 | 8.0 | 0.00 | 0.03 | 0.03 | 36 | 1011.4 |
| 20260509182451 | 27 | 159 | 0.0 | 3.2 | 0.00 | 0.03 | 0.03 | 35 | 1011.4 |
| 20260509181949 | 27 | 0 | 4.8 | 8.0 | 0.00 | 0.03 | 0.03 | 39 | 1011.7 |
| 20260509181447 | 27 | 182 | 4.8 | 4.8 | 0.00 | 0.03 | 0.03 | 35 | 1011.5 |
| 20260509180945 | 27 | 189 | 0.0 | 3.2 | 0.00 | 0.03 | 0.03 | 37 | 1011.6 |
| 20260509180440 | 27 | 185 | 3.2 | 8.0 | 0.00 | 0.03 | 0.03 | 34 | 1011.6 |
| 20260509175937 | 27 | 127 | 1.6 | 8.0 | 0.00 | 0.03 | 0.03 | 36 | 1011.7 |
| 20260509175433 | 27 | 319 | 3.2 | 4.8 | 0.00 | 0.03 | 0.03 | 35 | 1011.7 |
| 20260509174929 | 27 | 62 | 6.4 | 9.7 | 0.00 | 0.03 | 0.03 | 36 | 1011.4 |
| 20260509174425 | 27 | 114 | 1.6 | 1.6 | 0.00 | 0.03 | 0.03 | 40 | 1011.7 |
| 20260509173921 | 27 | 169 | 0.0 | 1.6 | 0.00 | 0.03 | 0.03 | 38 | 1011.9 |
| 20260509173420 | 27 | 279 | 1.6 | 8.0 | 0.00 | 0.03 | 0.03 | 39 | 1011.7 |
| 20260509172918 | 27 | 269 | 1.6 | 9.7 | 0.00 | 0.03 | 0.03 | 40 | 1012.0 |
| 20260509172414 | 26 | 192 | 0.0 | 3.2 | 0.00 | 0.03 | 0.03 | 39 | 1011.7 |
| 20260509171910 | 26 | 285 | 3.2 | 3.2 | 0.00 | 0.03 | 0.03 | 40 | 1011.9 |
| 20260509171406 | 26 | 1 | 0.0 | 3.2 | 0.00 | 0.03 | 0.03 | 43 | 1012.1 |
| 20260509170903 | 27 | 178 | 0.0 | 3.2 | 0.00 | 0.03 | 0.03 | 48 | 1012.1 |
| 20260509170359 | 26 | 183 | 0.0 | 3.2 | 0.00 | 0.03 | 0.03 | 53 | 1012.1 |
| 20260509165854 | 26 | 184 | 0.0 | 8.0 | 0.00 | 0.03 | 0.03 | 49 | 1012.2 |
| 20260509165348 | 26 | 197 | 6.4 | 9.7 | 0.00 | 0.03 | 0.03 | 46 | 1012.1 |
| 20260509164839 | 26 | 120 | 1.6 | 4.8 | 0.00 | 0.03 | 0.03 | 50 | 1012.1 |
| 20260509164335 | 26 | 343 | 3.2 | 4.8 | 0.00 | 0.03 | 0.03 | 46 | 1012.0 |
| 20260509163832 | 26 | 178 | 0.0 | 1.6 | 0.00 | 0.03 | 0.03 | 46 | 1012.1 |
| 20260509163328 | 26 | 34 | 1.6 | 4.8 | 0.00 | 0.03 | 0.03 | 48 | 1012.1 |
| 20260509162827 | 26 | 188 | 0.0 | 3.2 | 0.00 | 0.03 | 0.03 | 47 | 1012.0 |
| 20260509162320 | 26 | 195 | 3.2 | 4.8 | 0.00 | 0.03 | 0.03 | 47 | 1012.1 |
| 20260509161817 | 25 | 259 | 3.2 | 4.8 | 0.00 | 0.03 | 0.03 | 47 | 1012.0 |
| 20260509161314 | 25 | 177 | 1.6 | 4.8 | 0.00 | 0.03 | 0.03 | 47 | 1011.9 |
| 20260509160809 | 25 | 292 | 1.6 | 3.2 | 0.00 | 0.03 | 0.03 | 47 | 1012.1 |
| 20260509160305 | 25 | 209 | 0.0 | 1.6 | 0.00 | 0.03 | 0.03 | 52 | 1012.1 |
| 20260509155800 | 25 | 175 | 0.0 | 1.6 | 0.00 | 0.03 | 0.03 | 53 | 1011.7 |
| 20260509155257 | 25 | 172 | 0.0 | 1.6 | 0.00 | 0.03 | 0.03 | 51 | 1011.9 |
| 20260509154753 | 24 | 50 | 1.6 | 3.2 | 0.00 | 0.03 | 0.03 | 57 | 1011.9 |
| 20260509154250 | 25 | 170 | 0.0 | 4.8 | 0.00 | 0.03 | 0.03 | 53 | 1012.1 |
| 20260509153747 | 24 | 206 | 0.0 | 4.8 | 0.00 | 0.03 | 0.03 | 53 | 1011.7 |